sat.trackr.live / text

‹ back to catalog

STARLINK-35006

NORAD 65284 · 2025-184M

PAYLOAD ACTIVE UNKNOWN

§ Identity

Operator
Country
US
Launch date
2025-08-22
Launch site
AFWTR
Launch vehicle
Mass (kg)
RCS (m²)

Purposes: comms

External: N2YO · Heavens-Above · Gunter

§ Orbital elements

Epoch: 2026-05-25T03:12:01.123776Z

Period
95.64 min
Inclination
97.4482°
Eccentricity
0.0002465
Mean motion
15.05659325 rev/d
Perigee alt
547.8 km
Apogee alt
551.2 km
Semi-major
6,927.6 km
B*
1.9985e-4
RAAN
197.6480°
Arg perigee
117.7133°
Mean anomaly
242.4344°
Rev number
4,280

§ Raw data

STARLINK-350061 65284U 25184M   26145.13334634  .00002827  00000+0  19985-3 0  99932 65284  97.4482 197.6480 0002465 117.7133 242.4344 15.05659325 42804

JSON: /api/v1/satellites/65284 · /tle

For live sub-satellite position, see the globe view (requires WebGL).

§ Visibility from observer

Set your observer location to see the next 7 days of passes ≥ 10°. The values pass through the URL so the page stays shareable.

No JS? Fill the form by hand. The geolocation button needs JavaScript.